IRIDIUM 33 DEB, 46974

Orbit data source: Space-Track

IRIDIUM 33 DEB, 46974 is space debris in LEO originally from a launch on Sun, 14 Sep 1997 UTC launched from the Tyuratam Missile And Space Complex (TTMTR). The debris from Iridium 33, an American commercial communications satellite, has been tracked extensively since its accidental collision with the defunct Russian satellite Cosmos 2251 in 2009. This event, occurring at high speed in low Earth orbit (LEO), generated thousands of pieces of space debris, significantly increasing the risk of further collisions. The Iridium 33 debris cloud has impacted space traffic management and orbital debris mitigation strategies, making it a subject of ongoing study in space situational awareness.

Loading next visibility...
Identifier
46974, 1997-051ACG
Orbit
LEO
Country
Flag of USUS
Related business
Manufacturer
Unknown
Mission
Spacecraft
Bus & Motor
Unknown
Mass
Unknown
Launch date (UTC)
1997-09-14 (29 years ago)
Launch vehicle
Unknown
Launch site
Tyuratam Missile And Space Complex (TTMTR)
Object type
Payload
Rocket body
Debris
Shape & HBR
Unknown shape, 0.055 m
Radar Cross Section
Small (<0.1 m²)

Expand to show TLE details & history
Last TLE update: 1 day ago

TLE from 1 day ago
0 IRIDIUM 33 DEB
1 46974U 97051ACG 26266.47955422  .00004553  00000-0  11299-2 0  9993
2 46974  86.3020 340.3541 0083014 318.8729  40.6236 14.49601817616279
Epoch: 2026-09-23T11:30Z
TLE epoch observation values (Epoch: 2026-09-23T11:30:33.484Z)
Latitude
-0.00005°
Longitude
165.3845°
Altitude
685.453 km
Speed
7.537 km/s
True Right ascension
22h 41m 24s
True Declination
0° 00' 00"
Sunlit
Object was in full shadow at epoch
Visualization orbit readout
Latitude
Unknown
Longitude
Unknown
Altitude
Unknown
Speed
Unknown
Apparent Right ascension
Unknown
Apparent Declination
Unknown
Sunlit
N/A
Visualization observer readout
Local Sidereal Time
08:28:50
Azimuth
Unknown
Elevation
Unknown
Doppler factor
Unknown
Orbital elements
Apogee altitude
782.851 km
Perigee altitude
664.937 km
Semi-major axis
7,102.031 km
Eccentricity
0.0083
Inclination
86.302°
RAAN
340.3541°
Arg. of periapsis
318.8729°
True anomaly
41.24786°
Mean anomaly
40.6236°
Eccentric anomaly
40.93524°
Mean motion
3.62635 °/min
Orbital period
99.27 mins
BSTAR
0.0011299

Documentation

Showing up to 5 results
|